Regional Weather Roundup
Issued by NWS

Home | Current Version | Previous Version | Graphics & Text | Print | Product List | Glossary On
Versions: 1 2 3 4 5 6 7 8 9 10 11 12 13 14 15 16 17 18 19 20 21 22 23 24 25 26 27 28 29 30 31 32 33 34 35 36 37 38 39 40 41 42 43 44 45 46 47 48 49 50
000
ASUS43 KMKX 291521
RWRWI

WISCONSIN REGIONAL WEATHER ROUNDUP
NATIONAL WEATHER SERVICE MILWAUKEE/SULLIVAN WI
1000 AM CDT MON AUG 29 2016

NOTE: "FAIR" INDICATES FEW OR NO CLOUDS BELOW 12,000 FEET WITH NO
SIGNIFICANT WEATHER AND/OR OBSTRUCTIONS TO VISIBILITY.

WIZ001-002-006>008-014>016-023>028-291600-
NORTHWEST WISCONSIN

CITY           SKY/WX    TMP DP  RH WIND       PRES   REMARKS
SUPERIOR ARPT  PTSUNNY   69  64  86 CALM      30.12S
ASHLAND        PTSUNNY   70  63  78 N3        30.15R
HAYWARD        CLOUDY    67  63  87 S10       30.14F
SIREN          LGT RAIN  67  64  91 SE6       30.18F
CUMBERLAND     CLOUDY    72  63  73 SE8       30.25S
RICE LAKE      CLOUDY    74  65  74 SE3       30.26S
CHETEK         NOT AVBL
LADYSMITH      CLOUDY    70  66  88 S7        30.26F
EAU CLAIRE     CLOUDY    71  68  90 E6        30.25S
MENOMONIE      MOSUNNY   73  70  89 CALM      30.26S
NEW RICHMOND   MOSUNNY   75  66  74 SE6       30.26R
OSCEOLA        PTSUNNY   74  70  86 SE6       30.27F
$$

WIZ003>005-009-010-017-018-291600-
NORTH CENTRAL WISCONSIN

CITY           SKY/WX    TMP DP  RH WIND       PRES   REMARKS
MANITOWISH WTR NOT AVBL
ARBOR VITAE    PTSUNNY   70  66  87 S12       30.23F
WOODRUFF       PTSUNNY   70  66  87 S12       30.23F
RHINELANDER    PTSUNNY   70  66  87 S6        30.26F
EAGLE RIVER    CLOUDY    67  67 100 SW3       30.25S
LAND O LAKES   CLOUDY    67  66  96 S5        30.24F
PHILLIPS       MOSUNNY   69  66  93 S7        30.23F
TOMAHAWK       CLOUDY    67  64  90 CALM      30.27F
MEDFORD        MOSUNNY   73  69  88 E3        30.27S
MERRILL        MOSUNNY   73  68  84 S5        30.27S
$$

WIZ029-030-035-036-043>047-291600-
CENTRAL WISCONSIN

CITY           SKY/WX    TMP DP  RH WIND       PRES   REMARKS
WAUSAU         CLOUDY    68  66  93 NW5       30.28R
MOSINEE        CLOUDY    70  70 100 S5        30.28S FOG
MARSHFIELD     CLOUDY    74  68  81 SW6       30.26F
STEVENS POINT  PTSUNNY   70  66  89 S3        30.28S
WAUPACA        MOSUNNY   76  69  79 W5        30.27R
WAUTOMA        MOSUNNY   75  68  78 SW8       30.27R
WISC RAPIDS    CLOUDY    75  69  81 S6        30.28S
CAMP DOUGLAS   CLOUDY    68  68 100 SE3       30.27R
$$

WIZ011>013-019>022-031-037>040-048>050-291600-
NORTHEAST WISCONSIN

CITY           SKY/WX    TMP DP  RH WIND       PRES   REMARKS
ANTIGO         CLOUDY    67  67  99 W3        30.30R FOG
SHAWANO        PTSUNNY   73  66  78 CALM      30.28R
OCONTO         NOT AVBL
STURGEON BAY   MOSUNNY   73  67  81 S6        30.28R
GREEN BAY      MOSUNNY   74  68  81 CALM      30.27R
MANITOWOC      SUNNY     73  66  78 SE5       30.28R
APPLETON       PTSUNNY   75  64  69 VRB3      30.25S
CLINTONVILLE   PTSUNNY   73  64  73 SW7       30.27R
OSHKOSH        SUNNY     75  67  76 S3        30.26R
$$

WIZ032>034-041-042-053>061-291600-
SOUTHWEST WISCONSIN

CITY           SKY/WX    TMP DP  RH WIND       PRES   REMARKS
LA CROSSE      MOSUNNY   79  70  74 NE3       30.24R HX  82
SPARTA         MOSUNNY   74  69  82 CALM      30.26S
VIROQUA        MOSUNNY   72  69  90 CALM      30.27S
BOSCOBEL       CLOUDY    72  70  93 NE5       30.25R
PRAIRIE DU CHI CLOUDY    73  69  86 CALM      30.24R
PLATTEVILLE    CLOUDY    71  71 100 E6        30.25R
$$

WIZ056-057-062-063-064-067-068-291600-
SOUTH CENTRAL WISCONSIN

CITY           SKY/WX    TMP DP  RH WIND       PRES   REMARKS
REEDSBURG      NOT AVBL
BARABOO/DELLS  PTSUNNY   75  68  80 CALM      30.27R
LONE ROCK      CLOUDY    70  69  97 E5        30.27R FOG
MINERAL POINT  CLOUDY    72  72 100 SE3       30.26R FOG
MADISON        CLOUDY    75  67  76 SE6       30.25R
MIDDLETON      CLOUDY    76  68  77 E5        30.27R
WATERTOWN      SUNNY     76  70  82 CALM      30.26R
MONROE         CLOUDY    73  68  83 CALM      30.26R
JANESVILLE     PTSUNNY   79  70  73 E7        30.24R HX  81
$$

WIZ051-052-058>065-066-070>072-291600-
SOUTHEAST WISCONSIN

CITY           SKY/WX    TMP DP  RH WIND       PRES   REMARKS
MILWAUKEE      MOSUNNY   76  67  73 VRB6      30.27R
WAUKESHA       SUNNY     75  66  73 E5        30.28R
MILWAUKEE/TIMM SUNNY     75  63  64 E5        30.27S
RACINE         MOSUNNY   75  69  81 NE5       30.28R
BURLINGTON     SUNNY     74  66  76 E6        30.26R
KENOSHA        SUNNY     77  67  71 E8        30.26R
FOND DU LAC    SUNNY     76  68  76 S5        30.26S
SHEBOYGAN      MOSUNNY   73  66  78 SE3       30.27S
WEST BEND      SUNNY     73  64  73 CALM      30.27R
JUNEAU         SUNNY     74  67  78 CALM      30.27S
$$

LSZ147-162-291600-
LAKE SUPERIOR

STATION/POSITION TIME  TEMP    WIND        PRES    WAVE
                       AIR SEA DIR/SP/G            HT/PER
                 (UTC) (F)     (DEG/KT/KT) (MB)    (FT/S)
W MID LAKE BUOY  1450   67 67  270/  8/ 10 1020.0S   2/ 4
DEVILS ISLAND    1500   66     360/  4/  5 1020.2R
PORT WING        1400   69     230/  3/  5 1020.3R
SAXON HARBOR     1400   69     190/  5/ 15 1019.3F
$$

LMZ867-665-643>646-291600-
LAKE MICHIGAN

STATION/POSITION TIME  TEMP    WIND        PRES    WAVE
                       AIR SEA DIR/SP/G            HT/PER
                 (UTC) (F)     (DEG/KT/KT) (MB)    (FT/S)
CHAMBERS ISLAND  1400   73     150/  1/  4 1024.7R
N MID LAKE BUOY  1450   69 71  170/ 10/ 12 1024.5S   1/ 3
NORTHPORT PIER   1400   71     140/  6/  7 1024.7R
KEWAUNEE LAKESHO 1400   69      80/  2/  3 1024.1R
SHEBOYGAN LAKESH 1500   64     360/  6/  6 1024.6R
PORT WASHINGTON  1440   71      40/  3/  4 1025.1S
ATWATER BUOY     1500   65     360/  4/  4   N/A
MILWAUKEE LAKESH 1410   66      30/  9/  9   N/A
S MID LAKE BUOY  1450   73 75  100/  8/ 10 1023.8R   0
KENOSHA   LAKESH 1500   68      20/  5/  5 1024.4R
$$

TC  - TEMPERATURE IN CELSIUS
VSB - VISIBILITY IN STATUTE MILES
WCI - WIND CHILL INDEX
HX  - HEAT INDEX





USA.gov is the U.S. government's official web portal to all federal, state and local government web resources and services.